Regional Weather Roundup
Issued by NWS

Home | Current Version | Previous Version | Graphics & Text | Print | Product List | Glossary On
Versions: 1 2 3 4 5 6 7 8 9 10 11 12 13 14 15 16 17 18 19 20 21 22 23 24 25 26 27 28 29 30 31 32 33 34 35 36 37 38 39 40 41 42 43 44 45 46 47 48 49 50
000
ASUS45 KTFX 262119
RWRMT
MONTANA HOURLY WEATHER ROUNDUP
NATIONAL WEATHER SERVICE GREAT FALLS MT
319 PM MDT TUE AUG 26 2014

NOTE: "FAIR" INDICATES FEW OR NO CLOUDS BELOW 12000 FEET WITH NO
SIGNIFICANT WEATHER AND/OR OBSTRUCTIONS TO VISIBILITY.

* THESE STATIONS ARE NOT UNDER NWS QUALITY CONTROL. THEY DO NOT
   REPORT WEATHER SUCH AS PRECIPITATION OR FOG.

MTZ001>007-043-262200-
WEST OF THE DIVIDE
CITY           SKY/WX    TMP DP  RH WIND       PRES   REMARKS
KALISPELL      SUNNY     77  45  32 S9        30.08F
MISSOULA       SUNNY     79  37  22 VRB7      30.11F
BUTTE          SUNNY     72  41  33 VRB3      30.20F
MULLAN PASS    CLOUDY    64  37  37 VRB6      30.25F
* LINCOLN      N/A       72  43  35 SW6G14     N/A
* LOOKOUT PASS N/A       71  40  33 E3G12      N/A
* POLSON       N/A       79  44  29 E3         N/A
* RONAN APT    SUNNY     77  45  32 N/A        N/A
* SEELEY LAKE  N/A       75  43  32 NW3G13     N/A
* THOMP F APT  SUNNY     68  41  38 S7G15      N/A
$$

MTZ008-052>055-262200-
SOUTHWEST MONTANA
CITY           SKY/WX    TMP DP  RH WIND       PRES   REMARKS
BOZEMAN        SUNNY     72  43  35 SW5       30.16F
DILLON         SUNNY    N/A N/A N/A N/A       30.17F
W YELLOWSTONE  PTCLDY    66  37  34 SW10G17   30.26F
* THREE FORKS  SUNNY     73 -35   1 N/A        N/A
* BOULDER HILL N/A       65  38  37 N3         N/A
* MONIDA PASS  N/A       62  41  46 SE6        N/A
* RAYNOLDS PAS N/A       64  46  52 S8         N/A
* WHITEHALL    N/A       77  50  39 S4G9       N/A
* WISE RIVER   N/A       72  43  35 NW5G11     N/A
$$

MTZ009>010-012-014-046-048-049-054-262200-
EAST SLOPES AND CENTRAL MONTANA
CITY           SKY/WX    TMP DP  RH WIND       PRES   REMARKS
CUT BANK       SUNNY     79  39  24 SW13      30.07S
GREAT FALLS    SUNNY     77  41  28 SW13      30.08F
HELENA         SUNNY     77  45  32 CALM      30.10F
MALMSTROM AFB  SUNNY     75  39  27 VRB3      30.09F
* CONRAD       SUNNY     79  43  28 S5         N/A
* DEARBORN     N/A       76  41  29 S6G16      N/A
* EAST GLACIER N/A       69  41  36 W13        N/A
* MONARCH      N/A       69  28  22 NW5G15     N/A
* PENDROY      N/A       74  36  25 SW10       N/A
* ROGERS PASS  N/A       68  34  28 SE9G20     N/A
* SAINT MARY   N/A       70  42  36 SW9G20     N/A
* SWEET GRASS  N/A       75  38  26 SW6G12     N/A
* WHITE SULPH  N/A       73  41  32 W4G12      N/A
$$

MTZ011-013-016-021-035-040-045-047-050-051-262200-
NORTH CENTRAL MONTANA
CITY           SKY/WX    TMP DP  RH WIND       PRES   REMARKS
HAVRE          SUNNY     79  45  30 N/A       30.04F
LEWISTOWN      SUNNY     75  39  27 N7        30.13S
* CHINOOK      SUNNY     75  52  45 E5        30.05F
* FORT BENTON  SUNNY     79  43  28 SW5       30.06F
* CHESTER      N/A       76  36  23 SE1G10     N/A
* DENTON       N/A       78  35  21 NW5G10     N/A
* GEYSER       N/A       76  33  21 NW12G19    N/A
* JUDITH GAP   N/A       72  38  29 N4G12      N/A
* LOMA         N/A       77  43  30 SE1G6      N/A
$$

MTZ017>020-022>027-061-062-262200-
NORTHEAST MONTANA
CITY           SKY/WX    TMP DP  RH WIND       PRES   REMARKS
GLASGOW        SUNNY     72  50  46 S7        30.08F
GLENDIVE       SUNNY     70  48  46 SE6       30.13F
JORDAN         SUNNY     75  50  42 SW7       30.08F
SIDNEY         SUNNY     70  50  49 S3        30.13F
WOLF POINT     SUNNY     75  43  32 VRB5      30.09F
* BEAVER HILL  N/A       69  49  49 E8G13      N/A
* CIRCLE       N/A       74  52  46 SW9        N/A
* LINDSAY DVD  N/A       69  48  47 SE4G11     N/A
* NAVAJO       N/A       71  46  41 SW9        N/A
* SACO         N/A       72  53  51 SE8        N/A
$$

MTZ028>042-056>058-262200-
SOUTHCENTRAL AND SOUTHEAST MONTANA
CITY           SKY/WX    TMP DP  RH WIND       PRES   REMARKS
BAKER          SUNNY     72  52  49 SE9       30.14F
BILLINGS       PTCLDY    75  48  39 E5        30.12F
LIVINGSTON     PTCLDY    79  43  28 VRB7      30.14S
MILES CITY     SUNNY     73  48  41 CALM      30.10F
* LAUREL APT   SUNNY     77  46  33 N/A        N/A
* ROUNDUP APT  SUNNY     75  45  34 N/A        N/A
* ALZADA       N/A       75  54  48 NE2        N/A
* HYSHAM       N/A       74  38  27 W7         N/A
* LAME DEER    N/A       69  46  44 N4G10      N/A
* REED POINT   N/A       78  42  28 W7         N/A
* ROSCOE HILL  N/A       75  35  23 NE4        N/A
$$

REGIONAL REPORTS...DAKOTAS
CITY           SKY/WX    TMP DP  RH WIND       PRES   REMARKS
WILLISTON      PTCLDY    70  45  41 S8        30.12F
DICKINSON      CLOUDY    63  52  68 S9        30.14F
BEACH          N/A       68  54  61 S6        30.13F
CROSBY         SUNNY     68  45  44 S3        30.12F
TIOGA          SUNNY     68  45  44 S9        30.16F
WATFORD CITY   SUNNY     68  46  45 SW7       30.11F
BISMARCK       PTSUNNY   57  54  90 CALM      30.19F
GRAND FORKS    PTSUNNY   68  52  57 SW5       30.14F
FARGO          CLOUDY    70  52  53 CALM      30.15F
BUFFALO SD     PTCLDY    68  54  61 E3        30.07F
RAPID CITY     PTSUNNY   75  61  62 E5        30.11F
$$

REGIONAL REPORTS...WYOMING/IDAHO/WASHINGTON
CITY           SKY/WX    TMP DP  RH WIND       PRES   REMARKS
GILLETTE       PTCLDY    75  48  39 N8        30.15S
SHERIDAN       PTCLDY    77  48  36 NW6       30.14F
CODY           PTSUNNY   72  50  46 CALM      30.17F
YELLOWSTONE LA PTCLDY    57  43  60 VRB3      30.36F
SALMON         PTCLDY    73  43  34 N3        30.12F
MULLAN PASS    CLOUDY    64  37  37 VRB6      30.25S
SAND POINT     SUNNY     79  46  31 SW7       30.06F
SPOKANE        PTCLDY    81  43  26 VRB3      30.08F
$$

REGIONAL REPORTS...ALBERTA
CITY           SKY/WX    TMP DP  RH WIND       PRES   REMARKS
CALGARY        SUNNY     75  43  32 VRB2      29.99F
LETHBRIDGE     N/A       79  45  30 SW8       30.00S
MEDICINE HAT   SUNNY     82  45  27 SW12      29.98F
EDMONTON       PTCLDY    79  46  31 W9G17     29.90F
WATERTON GATE  N/A       73  45  37 SW15G23    N/A
CARDSTON       N/A       75  46  36 W7         N/A
MILK RIVER     N/A       79  41  26 SW5        N/A
$$

REGIONAL REPORTS...SASKATCHEWAN
CITY           SKY/WX    TMP DP  RH WIND       PRES   REMARKS
SWIFT CURRENT  SUNNY     73  45  37 SW14      30.02F
MOOSE JAW      SUNNY     72  48  43 W9        30.06F
REGINA         PTCLDY    70  50  49 S10G17    30.07F
VAL MARIE      N/A       72  50  46 S8         N/A
ASSINIBOIA     N/A       72  45  38 SW9        N/A
CORONACH       N/A       72  45  38 S7         N/A

$$



USA.gov is the U.S. government's official web portal to all federal, state and local government web resources and services.